User: anonymous   Login
Location: Allie Creek
(37.5926°N, 89.8526°W)
Time: 16:45:36
(UTC+00:00)
Language:

USA 81 - Orbit

View from above orbital plane
View from above orbital plane
View from above satellite
View from above satellite

Ground track
Ground track

The orbit data is extracted from the following two-line orbital elements,

1 21949U 92023A   24044.23105106 0.00000250  00000-0  93651-4 0    01
2 21949  84.9946 207.1068 0004385 118.2996 241.7003 14.31815516    09
Epoch (UTC): 13 February 2024 05:32:42
Eccentricity: 0.0004385
inclination: 84.9946°
perigee height: 782 km
apogee height: 789 km
right ascension of ascending node: 207.1068°
argument of perigee: 118.2996°
revolutions per day: 14.31815516
mean anomaly at epoch: 241.7003°
orbit number at epoch: 0

The dashed part of the orbit path shows where the satellite is in the earth's shadow,  

DLR